Flag for U.S.A. Weather past 2 weeks in New Orleans, Louisiana, U.S.A.

Now
58 °F

Mostly cloudy.


Feels Like: 55 °F
Forecast: 56 / 61 °F
Wind: 15 mph from East

Location: Lakefront Airport

Current Time: Dec 19, 2014 at 6:02:30 AM

Latest Report: Dec 19, 2014 at 5:01 AM


Visibility: 10 mi

Pressure: 30.06 "Hg

Humidity: 75%

Dew point: 50 °F

Location of New OrleansLocation

Historic Weather in New Orleans — Graph

°F

New Orleans temperature yesterday

Maximum temperature yesterday: 66 °F (at 12:53 PM)
Minimum temperature yesterday: 54 °F (at 1:53 AM)
Average temperature yesterday: 60 °F

Past Weeks' High & Low Weather Summary

 TemperatureHumidityPressure
High81 °F (Dec 5, 11:53 AM)97% (Dec 4, 6:53 AM)30.37 "Hg (Dec 4, 6:53 AM)
Low47 °F (Dec 10, 6:53 AM)43% (Dec 16, 10:53 AM)29.96 "Hg (Dec 15, 2:53 PM)
Average60 °F70%30.19 "Hg
* Reported Dec 4 5:53 AM — Dec 19 5:01 AM, New Orleans, Weather by CustomWeather, © 2014

Note: Actual official high and low records may vary slightly from our data, if they occured in-between our weather recording intervals... More about our weather records

Advertising

New Orleans weather history for previous 24 hours

 ConditionsComfort  
Time TempWeatherWind HumidityBarometerVisibility
5:01 AM
Dec 19
58 °FMostly cloudy.15 mph75%30.06 "Hg10 mi
4:02 AM58 °FOvercast.14 mph75%30.07 "Hg10 mi
3:53 AM58 °FMostly cloudy.13 mph75%30.04 "Hg10 mi
2:53 AM58 °FPassing clouds.14 mph81%30.05 "Hg10 mi
1:53 AM59 °FMostly cloudy.13 mph81%30.07 "Hg10 mi
12:53 AM60 °FPassing clouds.13 mph78%30.09 "Hg10 mi
11:53 PM
Dec 18
60 °FMostly cloudy.8 mph80%30.11 "Hg10 mi
10:53 PM60 °FMostly cloudy.8 mph80%30.13 "Hg10 mi
9:53 PM59 °FPartly cloudy.8 mph81%30.12 "Hg10 mi
8:53 PM59 °FOvercast.12 mph81%30.12 "Hg10 mi
7:53 PM60 °FMostly cloudy.9 mph80%30.12 "Hg10 mi
6:53 PM60 °FOvercast.13 mph80%30.11 "Hg10 mi
5:53 PM61 °FPassing clouds.12 mph81%30.10 "Hg10 mi
4:53 PM64 °FSunny.8 mph73%30.09 "Hg10 mi
3:53 PM66 °FPartly sunny.8 mph65%30.07 "Hg10 mi
2:53 PM65 °FOvercast.6 mph68%30.08 "Hg10 mi
1:53 PM65 °FOvercast.10 mph66%30.08 "Hg10 mi
12:53 PM66 °FPartly sunny.12 mph61%30.09 "Hg10 mi
11:53 AM65 °FSunny.12 mph63%30.13 "Hg10 mi
10:53 AM63 °FSunny.14 mph65%30.16 "Hg10 mi
9:53 AM62 °FPassing clouds.15 mph62%30.18 "Hg10 mi
8:53 AM59 °FSunny.10 mph72%30.18 "Hg10 mi
7:53 AM56 °FScattered clouds.9 mph81%30.17 "Hg10 mi
6:53 AM54 °FScattered clouds.12 mph80%30.16 "Hg10 mi
Weather by CustomWeather, © 2014

See weather overviewHow to use our weather pages